Theta_e
334 333 330 328 327 326 325 323 322 322 322 321 318 317 318 317 318 318 319 319 318 317 316 316 315 315 314 313 312 312 312 311 312 312 311 310 310 310 309 309 307 307 308 308 308 308 306 306 306 307 308 308 307 307 307 307 307 306 306 305 304 306 304 304 301 301 304 307 305 305 306 307 305 306 305 305 306 307 308 309 310 309 309 309 309
333 331 329 327 327 326 324 324 323 322 321 318 316 316 317 318 319 319 318 317 317 316 315 316 315 314 313 312 311 310 310 311 311 311 310 310 310 310 309 308 307 307 307 306 308 308 308 306 306 307 307 307 307 306 306 306 306 305 304 305 303 304 306 304 302 301 301 305 304 306 305 306 303 305 304 304 305 307 307 307 308 308 308 309 308
332 330 327 326 326 325 324 323 322 321 318 316 315 316 317 319 318 318 318 317 317 317 316 316 314 314 313 311 310 310 310 310 311 310 310 309 308 309 309 308 307 307 306 306 306 307 307 307 307 307 308 307 307 307 307 307 307 306 305 306 305 306 306 306 303 302 302 302 305 304 304 305 304 303 303 305 306 307 305 306 306 307 308 308 308
330 329 327 325 324 324 323 322 321 320 317 315 315 316 317 318 318 317 317 317 315 317 316 315 314 313 312 310 310 309 309 310 309 309 308 309 308 307 308 308 307 307 306 306 306 306 306 306 306 307 307 306 306 305 306 307 306 305 305 305 306 306 307 306 306 304 303 302 304 302 304 303 303 303 303 305 305 305 306 307 307 307 307 307 307
329 328 326 324 323 323 323 322 321 320 317 315 317 318 318 317 317 316 317 316 316 315 315 315 313 312 311 309 309 309 309 309 308 308 309 309 308 308 307 307 308 307 307 306 306 306 305 305 305 306 306 306 306 305 306 306 305 305 305 305 305 306 306 306 305 305 303 302 302 303 304 303 303 304 304 302 303 304 305 305 305 306 307 307 307
328 327 325 324 323 324 323 322 321 319 317 316 317 318 317 316 315 316 316 316 315 315 314 313 312 311 309 309 309 309 309 309 308 308 308 308 308 308 308 307 307 306 306 306 306 306 306 305 305 305 305 305 305 306 307 306 307 305 305 305 305 306 306 305 305 304 304 302 302 301 303 302 301 303 303 303 302 302 303 304 306 306 305 305 305
328 327 326 325 324 323 323 322 320 318 317 318 318 316 314 314 315 315 316 316 315 314 313 312 312 310 309 309 309 309 308 308 308 308 307 308 308 307 307 307 306 306 306 306 306 306 306 306 306 305 305 305 305 305 306 307 306 305 305 305 305 305 304 304 304 303 303 302 302 302 301 302 302 300 302 303 303 303 302 302 302 304 305 303 302
328 327 326 325 323 320 319 320 319 318 318 317 315 314 314 314 315 316 316 315 314 313 312 312 311 310 309 309 309 309 308 308 308 308 308 308 307 307 307 306 306 306 306 306 306 306 306 305 304 303 303 303 304 304 304 305 306 305 304 305 304 304 303 303 303 301 302 302 300 300 300 300 301 302 302 302 301 301 303 302 300 301 302 303 303
329 327 326 323 321 318 316 317 316 315 315 314 313 312 312 313 315 315 315 315 314 313 313 312 310 308 308 309 309 309 308 308 308 308 307 307 307 306 306 305 306 305 305 305 305 304 303 303 302 302 301 299 297 298 297 298 305 303 303 304 303 303 302 302 302 300 301 301 300 301 299 299 300 299 298 298 298 298 302 303 302 302 301 301 302
325 325 324 321 318 316 314 313 314 314 312 310 311 311 312 314 315 315 314 314 313 313 312 311 309 308 308 308 309 308 308 308 306 303 304 307 307 306 307 307 306 306 305 304 304 304 302 301 300 301 301 300 297 295 294 295 295 301 302 302 301 301 300 300 300 300 301 299 299 299 298 298 298 299 298 299 301 302 301 302 300 301 301 301 302
320 320 320 319 316 314 313 312 311 310 310 310 310 311 312 314 315 314 314 313 313 312 311 310 309 308 308 308 308 308 308 307 296 295 295 300 307 307 307 307 306 306 305 305 304 304 303 303 304 304 304 303 302 294 295 293 293 293 293 295 297 300 300 298 299 300 299 300 300 299 297 298 298 299 299 299 300 301 301 302 301 301 299 297 296
318 317 316 317 315 313 310 309 309 309 310 310 310 312 313 314 314 314 313 313 312 312 311 309 308 308 308 308 308 308 308 299 293 294 295 295 300 307 307 306 306 306 305 305 304 304 303 302 302 301 301 303 304 304 301 295 294 293 292 292 292 291 293 298 298 298 300 300 298 298 298 298 298 299 298 299 299 300 301 302 301 301 299 298 298
314 313 314 315 313 309 308 308 308 308 309 310 312 312 313 314 313 313 312 313 312 311 310 309 308 308 308 307 307 307 306 294 293 293 294 294 294 301 307 307 306 305 305 305 305 304 303 302 302 302 302 302 302 303 303 303 298 294 295 294 293 292 290 290 292 299 301 301 300 298 298 299 298 298 300 299 301 300 300 300 301 301 301 299 298
312 311 311 312 310 308 308 308 308 308 309 311 313 313 313 313 313 313 312 312 311 310 310 309 308 308 307 307 306 307 304 295 293 292 293 292 293 295 307 307 306 305 305 304 305 304 304 303 302 302 304 302 301 302 303 303 304 304 304 304 304 303 293 290 291 291 298 302 301 299 300 301 298 300 301 301 300 299 299 300 301 301 301 300 302
311 310 309 309 310 310 309 308 308 309 310 312 314 313 313 313 312 312 312 311 310 309 309 308 308 308 308 307 307 306 304 293 292 292 292 292 292 295 307 306 306 306 305 305 304 304 303 304 303 303 303 300 299 297 300 303 305 304 304 304 305 304 303 300 300 300 301 302 301 301 301 301 301 301 302 301 301 301 302 302 302 302 303 304 302
310 309 307 307 307 308 307 307 307 309 310 312 313 312 312 312 311 311 311 310 311 310 309 308 307 307 308 308 307 306 304 292 292 292 292 292 291 305 305 305 304 304 304 304 303 304 304 304 303 302 303 301 296 289 293 299 305 303 302 304 304 304 304 302 295 296 301 301 301 301 301 301 296 301 302 301 301 302 303 303 303 303 301 299 297
310 309 308 307 307 307 307 306 307 309 310 310 311 311 311 311 311 311 309 309 308 308 307 307 307 307 306 306 307 306 303 294 292 292 292 291 295 305 305 304 304 304 303 303 303 304 304 304 304 303 302 301 294 288 290 292 304 302 303 303 303 302 301 304 296 290 291 291 292 292 291 291 292 292 292 292 299 300 302 299 298 300 298 296 297
310 310 309 309 309 308 307 307 307 309 310 310 310 311 311 311 311 310 309 308 307 307 307 306 306 306 305 304 304 303 301 296 291 292 292 291 297 305 304 303 303 303 303 304 304 303 300 299 303 304 302 300 290 289 288 298 303 302 303 302 301 300 300 302 304 302 294 294 293 292 292 292 293 294 294 294 293 298 302 297 299 299 298 298 296
309 309 308 309 310 310 309 308 308 307 308 309 311 310 310 310 310 310 310 309 307 307 306 306 304 304 304 303 303 302 301 298 292 292 291 292 298 306 303 303 302 302 302 301 303 303 301 300 298 298 301 297 287 289 288 295 304 303 303 301 299 299 298 301 302 300 302 304 304 304 301 300 303 303 302 295 295 299 303 302 301 299 297 297 297
312 311 311 309 308 308 309 309 310 309 309 310 311 310 309 308 308 307 307 307 306 305 304 304 302 302 303 304 303 303 301 300 297 291 292 292 292 306 304 302 301 302 302 301 301 303 303 302 297 289 289 288 289 288 290 287 300 304 302 300 299 297 298 300 302 301 302 302 302 302 301 301 302 302 302 302 301 301 301 301 301 301 299 298 298
310 310 310 308 307 307 308 309 309 310 310 310 309 308 308 307 306 305 305 304 304 303 303 303 302 302 303 305 304 304 303 301 301 291 292 292 292 294 305 303 303 301 302 300 302 302 302 303 303 292 289 289 289 287 289 289 289 303 300 299 297 299 293 300 301 299 302 301 301 300 300 299 300 300 299 299 299 301 301 301 301 301 300 299 298
309 310 309 309 307 307 309 310 310 309 308 306 306 305 305 305 304 303 303 303 303 303 303 303 302 302 304 305 305 305 306 303 303 293 292 292 292 291 302 304 303 303 302 302 302 303 303 302 304 295 288 290 288 290 286 289 288 300 301 288 287 287 297 299 302 301 300 300 299 298 299 298 298 298 298 298 299 300 301 301 302 303 302 302 301
308 309 310 309 306 307 308 307 307 306 306 306 305 304 304 304 305 305 304 304 304 304 303 303 302 303 304 304 305 306 307 306 299 300 293 292 291 292 291 299 293 304 303 302 302 302 303 304 302 291 290 289 290 288 289 287 290 297 285 287 288 287 290 301 300 300 299 299 299 299 298 299 299 298 298 299 301 302 300 300 302 302 302 303 303
309 308 309 308 306 306 306 307 307 306 305 305 304 303 302 303 303 303 304 305 304 304 304 304 303 302 301 302 304 306 308 307 299 297 298 291 292 291 291 289 291 301 304 304 304 303 303 304 302 289 289 289 288 288 290 290 294 286 287 288 288 288 299 300 298 300 298 297 298 298 299 299 300 299 299 301 300 301 301 301 302 302 302 303 303
308 306 306 306 306 306 307 308 307 306 305 305 305 304 304 304 302 304 305 304 304 303 303 304 303 302 302 303 304 304 306 306 307 300 294 292 291 290 290 289 291 289 301 303 305 305 296 288 286 287 289 289 289 288 289 289 286 288 287 287 290 301 300 299 299 300 298 297 298 300 300 300 300 301 303 303 303 302 301 301 302 301 302 302 303
307 306 306 306 306 306 306 306 306 307 307 306 306 304 304 303 303 303 303 303 304 304 303 303 303 303 302 304 303 304 305 306 307 305 298 295 294 290 290 290 292 290 293 300 287 286 288 290 287 287 288 290 297 299 302 301 290 288 288 290 303 300 300 299 299 298 298 298 298 298 299 300 301 303 303 303 302 300 300 299 299 299 300 300 299
307 307 306 305 305 305 305 304 304 305 306 306 306 305 304 303 303 302 302 302 303 303 303 303 303 303 303 303 303 304 305 305 306 306 304 303 303 300 297 298 292 291 296 300 297 299 296 296 298 293 294 290 292 291 293 294 295 296 299 301 301 300 300 299 300 300 299 299 299 299 300 301 303 302 301 301 300 301 302 300 299 299 299 299 297
308 307 306 305 304 304 304 296 301 304 304 305 304 305 305 304 303 302 302 303 302 302 303 303 302 304 303 304 304 304 304 304 304 305 304 304 304 303 303 302 302 301 299 300 302 301 302 295 294 300 300 300 299 299 299 302 300 298 300 300 300 299 297 296 295 302 301 301 301 300 301 301 300 300 300 300 300 300 302 300 300 299 299 299 297
309 307 305 304 303 304 305 303 305 305 305 305 306 306 306 305 304 304 306 305 305 304 304 303 304 306 305 304 304 304 304 303 305 299 305 297 301 304 303 302 303 301 298 294 302 304 302 300 298 299 299 298 295 301 300 300 301 301 301 301 301 301 302 300 301 300 301 300 299 299 298 299 299 300 299 299 300 300 302 301 302 301 300 300 297
309 305 304 304 304 304 304 304 305 304 305 305 306 306 292 293 301 305 304 298 296 296 297 304 306 306 306 306 307 305 304 305 295 293 293 293 294 292 290 291 292 297 292 288 298 301 301 299 300 298 300 300 298 298 299 300 300 299 300 295 297 300 299 300 300 300 299 298 300 298 299 299 300 299 299 298 299 299 300 297 301 301 299 298 297
308 306 304 304 301 303 303 304 305 305 306 306 306 305 304 302 289 287 292 297 295 293 292 291 294 296 302 306 302 289 291 291 291 292 291 292 292 291 291 290 289 287 289 297 295 296 296 297 298 299 299 299 298 299 299 296 295 295 297 298 299 299 293 301 300 299 300 296 296 298 296 299 298 299 298 299 298 299 300 301 300 301 299 298 298
310 310 307 305 302 303 304 304 305 305 305 306 306 304 303 302 301 292 289 291 291 291 291 291 292 294 293 297 302 300 291 290 290 290 291 290 290 289 288 288 287 288 285 288 294 295 296 297 297 298 300 298 297 296 298 300 298 298 298 297 297 298 298 300 300 300 299 299 297 296 297 297 298 296 297 298 295 298 299 298 299 300 299 299 299
309 309 308 305 303 302 303 304 305 305 306 306 306 305 304 302 301 300 296 289 289 290 290 290 290 291 291 291 290 293 294 290 289 289 289 289 288 288 288 288 288 287 288 293 294 295 297 299 299 300 299 297 299 299 300 300 299 299 300 298 297 299 301 302 298 300 299 300 296 297 297 297 297 296 295 296 298 296 297 297 298 298 299 297 296
308 307 306 304 304 303 304 304 304 305 306 306 306 304 303 304 303 301 298 297 296 293 291 289 290 290 289 289 290 290 289 288 288 288 288 288 288 287 288 291 287 287 290 295 296 295 298 299 299 300 300 301 300 301 299 300 299 299 299 299 300 302 302 303 302 300 298 298 297 297 297 298 297 297 297 297 298 298 296 296 299 296 297 297 297
309 300 294 298 305 304 304 304 304 305 305 305 304 304 303 302 302 300 299 297 297 296 296 296 291 290 296 293 289 288 289 288 288 288 288 287 288 288 289 295 292 293 294 296 298 298 298 298 299 299 300 301 300 299 299 301 300 299 299 299 300 301 301 300 300 301 300 300 299 298 297 297 300 297 296 297 297 296 296 296 296 298 297 297 296
308 307 305 303 306 306 305 304 304 304 304 305 305 303 303 302 300 300 298 298 298 297 297 297 298 292 289 292 289 289 288 288 289 288 287 287 287 289 293 293 294 295 296 296 297 297 300 300 301 300 300 301 302 301 301 300 300 300 300 301 298 300 299 299 298 299 297 297 298 297 297 298 299 298 298 298 299 297 297 296 297 296 297 296 295
309 308 307 307 307 306 306 306 306 306 299 302 302 303 303 303 303 303 300 301 300 301 300 299 299 299 293 298 292 289 288 289 288 288 287 288 287 292 296 296 296 296 295 297 297 298 298 299 300 300 301 301 301 301 301 301 301 302 299 301 301 301 298 299 299 296 298 298 298 298 297 298 299 298 297 296 296 297 297 297 296 295 295 294 291
311 310 308 308 307 306 306 305 304 296 302 302 303 303 301 302 302 301 300 300 300 299 300 299 296 297 296 298 298 297 292 288 288 288 288 288 288 292 295 295 295 296 296 297 298 299 299 299 300 300 301 301 302 301 301 302 301 301 300 301 297 299 296 297 295 298 297 299 299 297 298 298 299 298 297 297 296 296 296 296 296 296 296 294 295
309 299 294 294 297 307 306 304 303 303 303 302 303 302 300 300 300 300 300 299 298 299 298 301 298 297 297 299 299 298 292 293 292 294 292 292 293 294 295 296 296 296 297 297 298 298 299 299 299 300 301 301 301 302 302 301 301 301 301 299 299 299 297 299 297 297 298 298 298 298 298 299 299 299 298 298 297 297 297 296 296 296 296 296 296
306 303 296 292 300 301 302 302 301 302 300 302 304 303 299 298 298 298 298 298 297 297 299 299 299 299 301 302 298 296 295 295 295 296 294 293 293 294 295 295 296 296 296 296 297 298 299 299 300 299 300 301 301 301 301 301 301 299 299 296 298 297 298 297 298 298 298 298 298 298 298 298 299 299 298 298 298 298 297 296 296 296 296 296 295
305 302 294 294 297 301 301 300 301 302 301 302 302 301 299 298 299 298 298 297 297 297 297 297 297 298 299 296 292 292 296 297 297 297 296 294 294 295 296 296 296 296 296 295 297 297 298 298 298 298 299 300 301 301 301 301 299 299 298 297 297 297 298 298 297 298 298 298 298 298 298 298 298 298 298 298 296 296 297 297 297 297 297 296 296
302 298 298 298 297 300 300 299 300 298 299 301 301 301 301 299 299 298 296 295 294 294 295 296 298 299 296 292 291 291 296 298 298 297 298 296 296 296 297 297 298 297 296 296 296 296 295 296 297 298 297 298 298 299 299 299 297 298 298 298 297 297 297 298 298 297 297 298 298 298 298 298 297 297 296 294 297 298 298 297 297 296 296 296 296
299 298 298 298 298 298 298 299 300 301 300 301 301 297 298 300 300 299 296 295 295 294 294 295 297 298 295 289 290 289 295 297 294 297 297 296 296 296 296 296 297 296 296 297 297 298 296 296 297 297 297 298 300 297 297 297 298 298 298 297 297 296 297 297 297 297 298 298 298 296 296 296 296 298 298 297 297 297 297 296 296 296 296 296 295
298 298 297 297 297 297 297 299 300 300 301 298 299 298 300 300 300 299 297 296 296 295 295 296 296 296 293 289 289 291 294 294 295 296 297 296 297 296 296 297 296 296 297 297 297 298 299 297 298 299 301 301 302 304 303 299 297 298 296 297 296 296 296 296 296 296 296 297 296 295 296 296 296 297 295 296 297 296 296 295 295 295 295 295 295
299 298 297 297 298 298 298 300 299 299 295 296 299 299 298 300 300 298 297 296 294 295 296 295 295 294 292 291 291 291 292 293 293 294 295 296 296 296 296 296 296 296 297 297 298 300 299 296 297 295 296 297 301 303 302 303 303 297 298 297 296 296 296 295 295 295 295 293 294 295 296 296 296 297 297 296 295 295 295 295 295 291 293 294 294
298 298 297 297 297 297 297 298 295 298 297 298 299 299 298 299 299 298 296 296 295 294 294 294 295 294 294 293 292 291 293 294 295 295 295 296 296 296 296 296 297 298 299 298 298 299 298 297 295 296 295 295 299 301 301 302 301 301 301 301 299 297 297 297 295 294 294 294 294 295 295 295 295 295 293 295 295 295 294 294 293 294 293 293 293
298 298 297 297 298 297 297 298 297 297 298 296 296 295 295 296 297 296 293 295 295 294 295 295 295 294 293 293 293 293 294 294 295 295 296 296 296 296 297 299 295 301 300 300 299 296 296 295 295 295 293 295 296 299 300 299 299 297 296 294 293 292 292 291 293 295 294 294 294 294 294 293 294 294 294 294 293 294 293 293 293 292 292 293 292
298 297 297 297 297 297 297 297 295 291 295 294 295 295 294 294 295 295 295 294 293 294 294 294 295 295 293 294 294 294 295 294 294 294 296 296 297 299 300 300 298 298 298 298 296 296 297 296 296 295 294 294 293 296 297 296 295 294 291 289 287 286 285 286 291 293 292 293 293 293 293 293 293 293 293 292 292 292 292 292 292 292 291 291 291
298 297 297 296 297 297 296 296 294 295 296 295 294 294 293 294 294 294 294 294 294 294 294 294 294 294 294 294 293 294 294 294 295 296 297 298 299 300 300 299 297 299 297 297 295 296 294 297 294 293 293 293 292 292 292 291 290 289 287 286 283 281 282 283 286 287 286 289 293 293 293 293 292 291 290 290 291 291 290 290 290 289 289 289 289
298 297 297 297 297 297 296 296 296 297 295 295 295 294 294 294 294 294 294 294 294 294 295 294 295 295 295 295 294 295 296 296 296 297 298 298 298 299 299 298 298 297 296 296 296 295 294 292 292 291 290 290 289 288 287 286 286 285 284 282 280 281 281 282 284 283 284 287 289 291 291 290 290 290 289 290 289 288 288 287 286 286 287 287 287
298 298 298 299 300 299 299 298 297 297 296 296 295 294 293 293 293 293 293 293 294 294 294 295 296 296 296 297 295 296 296 297 298 298 298 299 299 298 298 297 296 297 297 296 293 292 292 291 290 289 288 287 286 286 285 284 282 281 279 279 279 280 280 280 282 282 282 284 288 290 288 288 287 287 287 287 287 286 285 284 285 285 285 285 285
Wind_Speed
13 14 13 13 15 15 14 14 13 12 12 11 11 9 8 9 9 9 9 9 9 10 9 9 9 9 9 8 8 8 9 9 8 8 8 8 8 8 8 8 8 7 7 7 6 6 6 7 7 6 5 5 5 5 6 6 6 6 6 6 6 6 7 6 7 7 7 7 8 9 10 12 11 12 14 15 15 14 15 13 14 13 14 14 16
13 14 13 14 15 15 16 13 12 12 12 11 11 9 9 9 9 10 10 10 9 10 10 9 9 9 8 9 9 9 10 10 9 8 9 9 8 6 7 8 8 8 7 7 6 4 5 7 7 6 5 6 6 6 6 5 6 6 6 6 6 6 6 6 7 7 9 8 9 9 10 12 11 13 14 16 16 15 16 14 12 12 12 14 15
13 14 14 14 15 15 14 12 12 14 13 10 11 10 9 9 9 10 10 10 9 9 10 9 9 9 9 9 9 10 10 10 9 9 9 9 9 8 7 8 8 7 7 7 7 6 6 6 5 5 4 5 5 5 5 5 5 5 5 4 5 5 5 5 6 8 9 9 9 10 10 11 12 13 14 13 14 15 15 14 13 12 12 15 16
13 15 14 15 15 15 12 12 14 13 13 10 12 11 10 9 9 10 10 10 10 9 10 10 9 9 9 9 10 10 10 9 10 10 10 9 9 9 8 7 7 7 7 6 6 6 6 5 5 5 5 6 5 5 6 5 5 5 5 4 4 5 4 5 5 6 7 9 9 10 10 11 11 12 12 13 14 15 14 13 13 13 15 15 17
14 15 15 16 15 15 15 13 13 13 12 11 12 11 11 9 8 10 10 10 10 10 9 9 9 9 8 10 10 10 11 11 10 10 9 8 9 8 8 7 7 7 6 6 6 6 6 6 5 5 5 6 5 6 6 6 5 6 5 5 5 5 4 5 6 6 7 8 9 9 10 10 11 12 13 14 14 14 14 14 14 13 15 16 15
15 15 15 16 16 17 16 13 13 13 13 12 12 11 10 9 10 9 10 11 11 10 10 9 8 9 9 10 10 11 11 10 10 10 9 8 8 7 8 7 7 7 6 6 6 5 5 6 6 6 6 6 5 5 5 5 4 5 6 6 6 6 6 6 6 7 7 8 9 10 10 11 11 11 14 14 15 14 14 14 14 13 14 16 16
15 15 16 16 16 16 15 13 12 12 12 12 11 10 9 9 10 10 10 11 11 10 10 9 8 9 10 10 11 11 11 10 10 9 9 8 8 8 7 7 7 6 6 6 5 5 5 5 6 6 6 6 6 6 5 4 3 5 5 6 6 7 7 7 7 8 8 8 9 9 10 10 11 12 13 14 14 13 15 14 14 14 14 15 16
15 15 16 15 14 13 11 10 11 10 11 11 10 10 9 9 9 9 10 11 10 10 10 10 9 9 10 10 10 10 10 10 9 9 8 8 8 8 7 7 7 6 6 6 5 5 6 6 7 7 7 7 7 6 6 5 4 5 5 6 7 7 7 7 7 8 8 8 9 10 10 11 10 11 12 13 13 13 13 13 14 15 16 15 16
15 15 15 13 12 11 10 8 8 10 10 11 10 10 9 9 9 9 9 9 8 10 10 10 10 10 10 10 11 10 9 9 8 8 8 8 8 8 8 7 7 7 7 6 6 6 6 6 7 7 7 7 8 6 6 6 5 5 6 6 7 7 7 7 7 8 8 8 9 9 10 10 11 13 14 14 15 15 14 13 12 13 14 14 14
13 12 12 12 12 11 10 8 9 10 10 10 10 10 9 9 10 10 10 10 10 9 10 10 10 10 11 11 10 9 8 7 6 6 6 8 8 6 6 7 6 6 6 6 6 6 7 7 7 7 6 6 4 1 1 3 6 6 5 6 7 7 7 8 8 8 8 8 9 10 11 11 12 13 13 14 13 14 14 13 13 13 13 14 14
10 11 12 12 13 12 11 10 10 10 10 10 10 10 10 9 10 10 10 10 10 10 9 10 10 10 11 11 11 9 7 6 8 6 5 4 7 7 6 6 6 6 6 6 6 6 6 6 6 5 6 8 7 7 5 4 2 1 1 4 6 6 7 8 8 8 8 8 9 9 10 11 12 12 13 14 14 14 14 13 13 14 15 18 16
10 10 10 12 13 13 10 10 10 10 10 10 11 11 10 11 10 10 10 11 10 9 10 10 10 10 10 11 10 9 8 10 8 6 4 3 4 5 6 6 5 5 5 5 5 6 6 5 5 5 5 5 3 5 6 6 4 4 4 4 3 1 4 5 6 7 8 8 9 9 10 10 11 12 13 13 14 14 14 12 13 14 15 15 15
9 10 10 12 13 11 11 11 10 10 10 11 11 11 11 11 11 11 11 10 10 10 10 10 10 10 10 11 11 10 9 10 8 7 3 1 4 4 6 5 5 5 5 5 5 4 5 5 4 4 4 2 4 2 1 4 8 8 9 8 5 6 7 8 8 5 7 7 8 9 10 10 11 11 12 14 13 14 13 13 13 13 13 13 13
9 10 11 11 11 12 11 11 11 11 11 11 11 12 12 11 11 10 10 10 10 10 10 10 10 10 10 11 10 10 11 10 9 7 5 3 3 7 7 4 5 5 5 5 4 4 3 3 4 4 4 4 5 5 3 2 3 1 0 2 3 9 10 11 11 12 10 6 7 8 9 9 9 10 12 12 14 13 13 13 15 13 13 13 14
10 11 10 11 11 13 12 11 11 11 11 11 12 12 12 11 11 10 10 11 11 10 10 11 10 10 10 10 9 10 9 12 9 8 6 5 5 7 6 4 5 5 4 4 4 4 4 3 3 4 4 4 5 6 7 4 3 2 2 1 1 3 6 7 7 7 5 6 6 7 7 7 8 9 9 11 12 12 11 13 14 13 11 10 10
12 10 10 10 11 12 13 12 11 11 12 12 13 13 12 11 11 10 10 10 10 10 10 9 10 10 10 9 8 9 9 12 9 9 7 7 7 4 6 5 5 5 4 4 4 3 3 2 3 3 3 4 5 6 7 7 4 3 3 3 3 2 4 4 1 4 5 5 5 6 6 8 9 8 8 8 10 12 11 10 11 11 11 12 12
14 14 13 13 13 13 12 12 12 13 13 13 13 12 12 12 11 10 11 11 11 11 10 10 10 10 10 9 9 8 9 9 10 9 9 9 7 4 6 5 5 5 4 4 3 3 2 2 2 2 2 4 4 7 9 10 4 4 4 4 4 5 6 2 10 11 10 11 11 11 12 12 12 11 10 10 8 11 10 11 12 12 12 13 13
13 14 15 15 16 15 14 13 13 13 13 14 13 12 12 11 11 11 12 12 12 11 11 11 10 10 9 9 7 8 9 9 11 10 9 11 9 4 5 5 5 5 5 3 3 3 5 6 6 2 2 4 3 7 9 9 4 5 5 5 6 6 7 7 6 3 8 11 12 13 13 12 10 11 4 7 9 9 10 11 13 12 12 12 13
12 14 14 14 13 13 14 15 15 14 14 14 13 14 13 12 11 11 10 11 11 10 10 10 10 10 10 11 12 10 9 9 11 11 10 10 8 5 5 5 5 5 5 4 3 4 5 5 6 6 5 4 2 4 7 8 4 5 5 5 5 6 7 8 6 8 8 9 8 8 7 6 8 8 9 7 8 11 10 10 10 11 12 12 12
13 8 7 10 12 11 11 12 12 13 14 13 12 12 11 10 11 10 9 9 9 8 8 9 11 10 10 11 10 10 10 9 10 11 10 9 10 6 4 4 5 5 4 5 5 4 4 5 6 6 3 2 2 2 4 6 6 4 5 4 5 5 7 7 6 8 8 8 8 8 9 9 9 9 9 9 9 11 10 10 10 10 10 11 11
11 12 12 10 11 12 11 12 13 11 10 9 8 8 8 8 8 8 7 7 8 9 10 9 9 8 8 8 9 8 10 11 11 12 10 10 9 6 4 4 4 5 4 4 4 5 5 4 5 7 4 2 1 1 3 5 7 5 4 4 4 5 8 6 6 8 7 8 8 8 8 9 9 9 10 9 9 9 9 10 10 10 10 10 12
12 12 13 11 10 12 12 11 10 9 9 9 9 9 8 10 10 12 9 10 12 12 11 10 10 9 8 9 10 10 10 13 11 12 12 11 9 8 6 4 1 4 4 4 4 4 3 3 4 7 4 3 1 1 2 4 7 5 4 3 8 8 7 7 6 7 7 7 8 7 8 8 9 9 10 10 9 10 10 10 9 10 10 9 9
13 12 13 12 11 11 11 12 10 9 10 10 11 11 11 11 11 11 12 12 13 13 12 11 11 11 10 10 10 11 10 9 12 12 13 12 11 8 8 5 7 4 3 3 3 3 3 3 6 8 4 4 4 2 3 4 8 2 2 7 9 11 9 6 5 5 6 6 7 7 8 8 9 9 10 10 10 10 11 11 10 10 9 8 9
14 13 12 11 12 11 12 13 11 10 12 11 11 12 12 11 11 11 11 12 12 12 11 11 11 12 12 11 11 10 9 10 9 13 13 13 11 10 6 3 6 5 4 3 3 2 4 3 6 9 4 5 5 5 5 5 3 4 6 9 11 10 7 5 5 5 5 6 6 7 8 8 8 9 9 9 10 10 11 10 10 11 10 9 9
13 12 11 11 11 12 12 12 12 12 11 12 12 11 12 12 11 11 11 11 11 12 12 12 12 11 12 11 11 10 10 10 9 9 12 13 10 9 7 5 5 3 5 6 4 2 8 10 9 5 5 6 7 6 6 6 5 6 7 11 11 6 3 4 5 4 5 5 6 7 8 8 8 9 8 8 9 9 10 10 10 11 11 10 9
12 13 12 11 12 12 13 12 12 13 13 11 11 10 11 11 10 11 11 11 11 12 12 12 12 11 11 11 11 11 10 10 9 9 8 9 8 7 6 6 6 5 7 5 7 7 5 5 2 2 5 5 7 7 5 4 8 8 9 10 8 2 3 3 3 4 4 5 5 6 7 8 8 9 9 8 9 9 10 10 10 10 11 10 10
12 12 12 12 12 12 13 11 11 12 13 11 10 10 10 10 10 11 11 11 11 11 11 12 12 11 12 11 11 11 10 10 9 9 10 9 9 7 7 6 6 4 5 7 6 4 5 5 4 7 4 6 7 5 5 3 6 8 8 8 3 1 1 1 3 2 4 4 5 6 6 7 7 8 9 9 10 9 10 10 10 10 10 10 10
13 12 13 11 11 11 11 13 13 11 12 11 11 11 11 11 11 10 11 11 12 11 11 11 12 11 11 11 11 10 10 10 10 10 11 10 10 10 10 9 9 9 8 8 8 7 6 6 4 6 7 7 8 8 7 6 5 4 3 2 2 2 2 3 5 4 2 3 4 5 5 6 7 8 8 9 10 9 9 10 10 10 10 10 10
11 12 11 10 10 10 9 12 11 11 11 11 10 10 11 11 10 9 10 10 10 10 10 10 11 10 10 10 11 11 10 11 11 10 10 10 10 10 10 10 8 9 4 3 6 6 6 6 7 8 7 7 4 6 5 5 4 3 3 4 3 4 4 3 1 1 2 3 4 5 5 7 7 7 8 9 9 9 8 10 9 10 10 10 11
12 11 9 9 9 10 9 10 10 11 11 11 11 7 12 9 3 5 10 7 4 4 2 7 9 9 9 9 9 9 10 8 11 13 11 11 6 3 9 8 8 4 7 5 3 5 7 7 7 6 7 6 5 4 3 3 3 3 4 4 4 3 2 2 2 1 2 4 4 5 5 6 6 7 8 9 9 9 8 10 9 9 10 10 11
12 10 11 10 10 9 9 10 10 10 11 11 10 10 9 6 10 13 11 9 6 4 6 7 4 2 4 7 7 13 12 15 16 13 12 11 9 6 6 7 8 7 5 4 3 5 4 5 6 7 6 6 3 5 4 4 3 3 4 3 3 2 2 4 2 2 4 3 3 4 3 5 5 7 8 8 9 9 9 9 9 9 10 10 11
13 14 12 10 10 10 9 11 10 10 10 10 10 10 10 10 5 10 10 8 8 6 6 4 3 2 3 5 5 6 8 11 13 13 11 11 9 8 7 7 6 5 3 4 4 6 6 5 5 6 7 6 4 5 5 4 4 4 4 3 3 3 3 3 2 4 4 4 3 3 3 4 6 6 7 8 8 8 9 9 9 9 9 9 10
11 11 11 11 10 9 8 9 9 10 10 11 10 9 10 9 9 8 6 10 9 8 6 5 2 2 3 7 11 5 9 9 10 9 9 10 10 9 8 7 7 5 4 3 6 6 6 8 8 7 7 5 6 6 6 5 5 4 4 4 3 4 4 1 2 5 5 5 4 4 4 4 4 6 5 5 7 6 8 6 9 9 9 9 9
10 10 11 11 12 10 10 10 9 9 9 10 9 9 9 8 8 8 8 7 5 4 5 4 4 4 3 5 7 9 11 11 9 8 8 9 9 10 9 5 5 4 4 7 8 7 8 8 8 7 7 6 5 5 5 5 5 4 4 4 5 4 4 4 5 4 3 3 4 4 4 5 6 5 5 5 6 6 6 6 8 7 7 8 9
9 9 12 12 11 11 10 9 10 9 9 9 9 9 9 8 8 8 8 8 7 6 6 5 4 4 3 4 3 8 9 10 9 9 9 9 10 11 9 6 4 5 6 9 9 9 9 8 7 7 6 6 6 5 5 5 5 5 5 5 5 4 4 4 4 5 4 5 4 5 5 6 7 5 5 5 6 6 6 6 6 8 9 9 8
10 9 10 11 9 10 9 10 10 10 10 9 8 7 8 8 8 8 7 7 7 6 5 5 6 9 9 4 7 7 8 8 8 9 9 11 12 13 8 6 6 9 10 10 10 10 9 8 7 7 7 6 6 5 5 5 5 6 6 5 3 5 5 3 4 4 4 5 6 6 6 5 5 5 4 6 8 6 5 5 6 6 8 8 7
10 10 11 11 10 8 8 8 8 8 7 7 8 8 7 7 7 7 7 7 6 6 6 6 6 5 5 5 5 6 8 8 8 8 9 11 13 11 8 8 8 8 9 9 9 10 9 9 8 7 7 6 6 5 5 6 6 6 6 6 6 6 3 3 3 4 5 6 6 5 5 5 5 4 4 5 5 5 6 7 6 6 6 6 8
13 12 10 11 10 10 9 9 8 8 8 8 8 8 8 8 8 7 7 8 9 7 6 6 5 6 7 7 10 6 5 6 9 7 7 7 6 6 8 8 8 8 8 8 8 8 8 8 7 7 7 6 6 6 6 6 6 6 6 6 4 4 4 4 5 7 5 5 6 5 5 5 5 5 4 5 5 5 6 5 5 6 6 6 6
11 10 10 12 9 9 10 9 9 10 8 8 8 8 8 8 8 7 7 7 7 8 7 6 6 6 6 6 6 7 9 5 4 5 5 6 8 9 9 8 8 8 8 7 7 8 8 8 7 7 6 6 6 6 6 6 6 6 6 4 4 4 4 5 5 5 5 5 6 6 6 6 5 5 5 5 5 5 5 5 6 6 6 7 6
10 7 8 11 7 7 7 8 9 9 9 10 10 8 7 7 8 7 7 7 8 8 9 8 7 7 6 7 7 7 7 7 7 7 6 6 6 9 9 9 8 8 8 8 8 8 7 7 7 7 7 7 7 7 7 7 6 4 4 4 5 5 5 5 5 6 6 6 6 6 6 6 6 5 5 5 5 5 5 6 6 6 6 6 7
6 7 8 9 8 7 7 7 8 7 7 8 8 8 9 9 8 8 8 8 7 8 9 9 9 9 8 9 13 12 8 7 7 8 8 8 8 9 9 9 8 8 8 8 7 7 7 7 7 7 7 7 7 7 7 7 5 4 5 5 5 5 5 5 5 6 6 6 6 6 6 6 5 5 6 6 7 6 6 6 6 6 6 7 7
7 8 8 7 7 6 7 7 7 8 8 8 8 8 8 9 8 7 7 7 7 7 7 7 7 8 9 15 15 16 7 6 6 7 7 7 8 8 8 8 8 8 7 7 6 6 6 6 7 7 4 4 4 4 4 5 5 5 5 5 5 5 5 6 6 5 5 6 6 5 5 4 4 5 6 8 6 5 6 6 6 7 7 7 7
8 7 7 7 7 6 7 7 7 8 8 8 8 7 7 8 7 7 7 6 6 5 4 5 5 6 5 8 11 11 5 3 4 5 5 6 6 6 7 7 7 7 6 6 5 5 5 4 4 4 4 4 6 4 4 5 4 4 4 4 4 5 5 5 5 5 5 5 5 5 4 4 5 5 5 5 5 5 5 6 6 6 6 7 7
7 7 7 7 6 5 5 6 6 7 6 7 6 6 6 7 6 7 6 6 6 6 6 5 5 5 5 5 6 6 4 4 4 5 5 5 5 6 6 6 6 6 6 6 6 6 5 4 3 3 5 6 5 5 4 3 3 3 4 4 4 4 4 4 4 4 3 4 4 5 5 5 5 5 5 4 4 5 6 6 6 6 6 7 8
7 7 8 7 6 6 6 5 6 5 5 5 5 5 6 6 6 6 6 5 5 5 4 4 5 5 5 6 6 6 6 6 6 6 6 5 6 6 6 6 6 6 6 4 5 5 4 3 3 3 3 3 5 4 5 5 4 2 2 2 3 3 3 3 3 3 3 4 4 4 5 5 5 5 5 5 5 6 6 6 6 8 7 7 7
6 7 7 7 7 7 7 6 6 6 6 6 6 6 6 5 5 6 6 5 5 6 5 5 5 6 6 5 6 5 5 5 5 5 5 5 6 6 6 6 6 5 4 3 3 3 2 2 2 2 2 2 4 4 3 2 2 2 2 2 2 2 3 3 3 3 3 3 3 4 4 5 5 5 6 5 5 6 6 6 6 7 7 8 8
6 6 6 6 6 6 6 6 6 5 5 5 4 4 4 4 4 4 4 5 5 5 5 5 5 5 5 5 6 6 6 6 6 6 7 7 7 6 5 5 3 3 1 2 2 1 1 1 2 2 2 1 1 2 2 0 1 3 4 5 5 6 5 4 3 3 3 3 3 3 4 4 5 4 5 5 6 6 6 7 7 7 8 8 9
6 6 5 5 6 6 5 5 6 6 5 5 5 5 5 5 4 4 4 4 4 4 4 4 4 4 4 4 4 5 5 6 6 6 6 6 6 5 5 3 2 2 1 1 1 1 1 1 1 0 1 1 0 1 3 3 4 5 5 6 6 7 8 10 4 5 4 4 3 3 3 4 4 5 5 6 6 6 7 7 7 7 7 8 8
6 6 6 6 6 5 5 6 6 6 6 6 6 6 5 5 4 4 4 5 5 5 5 5 4 4 4 4 5 5 5 5 5 5 5 5 3 2 2 3 2 2 1 1 1 2 1 3 3 3 3 3 3 3 5 5 6 6 6 6 8 11 10 11 7 7 10 6 3 3 3 3 4 5 6 6 6 6 7 7 7 7 9 8 9
6 6 6 6 6 5 5 5 5 5 5 5 6 6 5 5 5 5 5 5 5 5 5 5 5 5 5 5 6 5 5 5 5 5 4 3 2 2 3 3 3 3 2 2 2 3 4 4 5 4 4 4 5 5 6 6 7 6 6 7 10 11 11 11 8 10 9 5 6 4 4 4 4 5 5 5 5 6 6 6 7 7 8 9 9
6 6 6 6 6 6 6 6 5 5 5 4 4 4 4 4 3 3 4 4 4 4 4 4 4 5 5 4 4 4 4 4 3 3 3 3 3 3 3 3 4 4 5 6 6 4 6 4 4 5 5 6 6 6 6 6 6 7 8 10 11 11 11 11 7 10 12 9 5 3 4 5 4 5 5 5 5 6 6 8 8 7 8 8 8
Wind_Direction
161 153 151 152 152 154 154 153 144 146 142 140 127 127 136 142 139 144 142 139 138 139 139 140 138 133 130 128 125 125 124 123 122 121 119 115 110 111 114 111 106 103 103 102 99 95 88 85 80 72 64 59 56 59 51 45 46 43 35 33 33 25 9 359 352 345 351 350 344 342 343 342 337 343 339 337 335 335 333 338 341 336 335 342 346
166 153 150 153 154 153 153 150 145 147 138 131 125 135 144 146 146 145 138 138 143 141 142 138 138 136 131 129 129 130 130 127 128 124 120 119 116 116 117 114 109 105 103 101 100 95 85 82 80 73 64 63 56 52 46 44 42 41 37 28 25 16 11 351 348 340 337 345 346 344 343 347 339 346 346 340 336 334 336 343 343 338 338 339 342
159 153 147 151 154 154 152 148 148 142 133 129 134 145 147 147 150 143 138 140 142 142 139 141 139 136 133 132 132 133 132 129 128 126 124 124 123 121 120 117 114 117 116 110 105 100 93 85 80 76 69 70 65 58 51 45 40 42 32 22 17 4 355 349 337 340 338 339 344 341 347 345 345 345 349 344 335 335 338 344 344 341 338 345 346
160 153 147 147 152 154 149 149 148 144 134 132 143 150 147 147 148 138 137 141 142 140 142 141 139 138 135 133 135 136 133 131 131 130 128 125 127 125 123 121 119 116 112 110 104 97 92 89 80 72 71 67 59 60 50 45 43 31 22 19 11 359 347 338 344 334 334 332 346 345 346 343 346 346 348 343 341 340 342 339 342 342 343 347 348
159 151 147 150 156 159 159 155 151 142 131 138 146 149 146 145 141 137 141 141 141 143 144 141 141 138 139 141 140 138 138 136 132 129 128 129 127 128 125 118 115 108 102 99 96 94 89 78 71 67 62 65 61 54 52 40 35 31 14 15 6 359 345 348 347 344 339 341 341 348 347 348 346 345 349 347 346 343 343 343 342 346 348 347 347
158 151 152 154 159 162 163 155 148 137 136 143 147 144 145 143 138 142 145 143 144 146 145 145 143 142 143 143 142 141 139 135 134 134 132 132 130 126 123 122 118 115 113 105 99 93 87 77 68 63 59 58 54 49 43 36 29 23 16 6 2 354 350 354 352 350 348 347 349 347 352 352 349 350 350 349 345 343 344 344 343 350 351 349 346
158 158 160 161 158 157 161 156 143 138 142 144 143 141 141 138 141 146 147 146 148 148 147 143 144 144 143 142 144 141 138 137 135 135 137 136 133 130 128 125 121 115 110 105 98 93 84 76 68 59 56 53 50 36 25 28 26 22 15 4 1 358 357 359 355 353 355 353 355 354 350 354 352 348 351 349 347 346 346 342 344 348 350 351 347
159 161 163 162 155 144 139 136 138 140 142 137 134 137 138 141 143 144 146 150 151 151 148 145 143 143 142 144 140 139 137 137 139 142 141 138 136 134 131 130 126 122 116 111 107 97 85 76 68 57 53 46 38 36 18 6 4 29 16 8 3 3 2 360 359 358 358 360 359 355 356 351 353 351 346 348 347 351 353 345 342 346 347 351 352
160 159 159 147 139 134 129 129 130 131 130 131 131 135 140 143 147 146 150 150 152 150 147 145 145 143 143 142 141 140 142 140 145 147 144 143 140 139 139 135 133 127 124 117 109 99 87 78 69 67 65 60 44 29 8 340 342 20 19 11 7 5 4 1 3 1 358 0 2 358 354 355 356 351 353 353 352 345 342 345 341 344 346 347 352
147 147 144 138 135 133 128 125 132 130 127 127 133 138 144 151 152 150 152 152 152 151 148 147 145 145 144 144 143 144 143 146 103 116 144 147 147 140 138 140 138 131 122 117 107 101 99 93 94 103 119 114 114 147 263 339 343 354 6 14 7 9 8 5 5 4 356 1 4 358 357 358 356 357 352 347 340 337 342 346 345 344 346 351 351
137 141 137 137 134 129 131 134 131 130 132 135 140 146 150 152 153 152 152 153 153 152 152 148 149 149 149 148 147 148 147 118 89 70 57 126 146 146 146 137 134 133 132 123 117 114 108 105 106 138 150 158 155 165 167 203 222 322 330 350 0 5 9 7 6 3 355 1 0 1 359 354 357 355 354 345 342 340 343 344 346 346 354 356 353
137 137 135 138 135 132 128 129 133 134 138 142 149 154 154 156 155 154 153 154 154 154 154 152 149 151 152 152 152 153 141 115 114 101 88 6 312 153 142 138 136 132 128 125 119 112 106 99 84 74 51 29 351 157 165 154 181 202 227 229 197 294 327 353 351 358 353 355 357 5 358 358 350 358 352 345 341 336 341 343 349 347 349 353 355
125 127 136 140 135 125 130 138 140 141 146 152 156 158 159 158 156 156 157 157 156 158 156 151 152 154 157 157 156 153 140 133 130 133 112 254 311 278 139 139 139 124 120 113 111 111 112 108 100 85 79 267 267 26 4 155 181 203 204 197 218 204 209 231 251 290 327 339 355 356 5 352 351 354 350 342 333 336 337 344 348 348 347 350 351
125 131 140 140 136 132 142 146 145 149 154 158 160 161 161 161 158 158 156 158 160 157 153 153 155 158 161 160 159 154 149 141 145 145 151 213 281 288 132 140 123 124 119 114 111 105 102 108 107 93 76 47 24 342 351 348 357 12 138 146 166 188 205 213 222 228 244 328 349 353 354 355 350 344 342 338 340 340 339 338 345 344 346 346 343
138 140 141 141 144 145 148 146 146 152 160 162 163 163 162 158 160 159 160 162 162 159 157 159 161 161 162 163 162 157 144 142 151 154 168 200 246 275 127 142 136 123 117 106 103 100 98 92 80 90 86 57 30 341 330 335 338 351 341 359 30 18 39 27 15 5 358 348 347 349 345 350 347 335 339 344 337 339 329 335 340 338 332 334 342
145 145 143 145 150 146 143 144 152 158 163 165 166 164 162 161 161 159 161 162 161 160 159 159 159 161 161 160 157 157 139 150 151 164 175 199 235 217 142 148 138 136 131 130 130 120 106 96 97 93 86 62 48 321 308 310 315 5 17 15 30 42 42 116 213 257 281 323 339 337 337 320 302 296 302 315 336 335 327 337 346 340 344 350 354
157 158 157 158 156 150 149 153 159 166 167 165 166 163 160 162 160 162 163 164 165 163 159 157 156 155 152 153 161 165 150 161 160 174 182 201 226 192 154 154 139 144 145 143 138 119 101 55 52 91 90 66 35 318 314 307 330 11 19 16 30 29 23 49 195 215 236 243 252 259 267 275 283 290 281 269 282 310 331 347 354 345 350 351 356
163 165 165 165 163 160 157 158 162 166 164 167 165 163 162 160 161 165 167 163 161 159 156 155 150 143 147 155 161 157 162 167 172 178 188 205 235 185 168 151 146 149 149 168 145 124 77 42 352 12 73 67 17 312 328 314 6 9 10 6 22 21 13 1 355 321 224 238 234 239 249 258 277 288 294 322 304 299 352 352 346 345 350 355 353
162 167 166 167 165 161 161 162 165 166 169 170 166 163 163 162 162 165 163 158 154 152 147 139 139 148 163 159 172 169 168 170 180 180 192 209 233 211 178 151 160 157 159 158 173 144 134 116 57 26 31 66 325 307 342 339 354 17 351 6 14 20 6 343 344 339 339 342 348 344 345 341 345 350 357 346 342 352 354 347 344 347 346 350 352
172 142 121 149 151 154 162 164 167 169 172 166 161 159 155 154 156 157 153 153 143 138 140 148 156 166 169 172 164 172 170 174 183 184 190 207 236 264 183 162 164 162 178 164 167 163 154 143 133 120 123 191 258 318 345 351 334 4 356 17 4 11 345 326 321 325 322 331 340 351 357 356 356 356 359 358 2 3 351 350 349 343 342 344 351
124 131 155 161 151 152 156 162 160 164 155 141 135 131 131 125 116 112 124 127 137 153 160 166 166 169 174 168 162 172 177 180 177 183 190 203 227 241 227 170 168 171 180 181 186 166 176 167 128 125 150 167 238 316 347 333 318 312 20 9 1 333 312 296 312 277 322 349 350 360 357 359 358 357 358 355 360 358 350 349 350 344 342 343 352
136 146 162 165 151 154 161 157 147 138 134 132 132 139 141 143 144 152 157 161 166 164 168 172 175 175 179 179 182 188 186 188 173 184 190 193 212 229 261 175 188 184 191 184 199 171 169 154 134 128 145 181 230 271 318 305 308 297 44 329 300 293 280 290 301 345 356 355 355 358 358 359 0 2 356 355 358 352 345 346 342 337 341 345 342
147 152 161 158 154 155 152 145 143 143 146 149 149 150 153 154 157 165 169 170 172 173 180 181 183 182 183 187 190 197 192 196 177 179 189 191 197 217 244 296 4 293 235 195 197 175 168 144 113 125 163 197 208 211 271 300 258 54 3 278 276 275 270 263 344 347 358 358 355 357 360 360 0 0 1 353 349 346 346 345 340 337 341 343 328
152 159 161 154 152 156 153 152 150 149 151 154 156 155 160 161 165 174 175 174 173 177 182 185 186 186 189 190 193 192 191 191 173 182 182 191 188 203 221 241 306 269 284 233 202 181 184 175 117 138 180 206 218 222 230 276 352 20 271 275 271 272 272 340 6 359 355 3 360 0 3 1 357 358 355 348 344 348 346 343 342 342 348 345 334
149 152 152 152 154 159 157 156 152 151 155 158 157 160 161 165 169 174 175 175 176 180 182 186 190 189 191 193 192 193 192 192 180 172 171 182 189 188 200 211 248 292 273 244 239 77 67 81 112 160 194 215 226 230 219 219 232 240 258 267 272 265 331 1 1 356 6 6 10 358 6 360 358 357 347 340 345 353 351 346 342 346 348 345 337
150 153 154 155 157 158 156 154 154 155 159 164 164 166 167 172 176 174 176 179 180 182 184 185 190 190 193 194 192 190 186 189 180 162 165 166 184 182 196 193 209 228 272 334 26 79 80 87 119 193 214 232 228 222 224 168 187 218 243 258 262 325 344 359 358 4 10 8 7 3 360 357 352 352 344 348 356 359 355 349 345 355 348 347 343
151 153 156 156 157 158 155 157 159 161 163 167 172 173 172 178 178 177 179 182 183 184 183 184 189 192 193 192 190 186 184 187 183 169 179 179 189 171 180 187 183 200 236 226 202 195 160 192 205 207 271 215 246 316 289 250 230 226 224 228 252 306 329 343 351 338 4 354 358 359 358 348 344 348 352 355 360 357 359 350 348 351 346 348 347
158 161 159 156 157 160 160 150 156 163 169 171 176 178 180 182 180 180 185 184 184 185 185 187 192 193 191 189 187 186 184 190 187 182 182 186 190 190 193 201 200 212 216 217 212 208 190 175 199 214 218 211 217 221 216 218 223 235 252 277 256 232 250 237 248 254 339 342 338 343 347 346 345 349 345 353 355 351 355 353 349 352 350 351 354
155 150 151 152 157 162 161 163 169 166 171 180 180 182 185 184 180 184 190 191 188 187 185 188 195 194 193 190 186 187 192 191 192 181 180 179 187 186 191 197 199 205 194 14 202 194 201 205 211 214 217 217 219 227 215 214 222 220 222 261 254 236 233 239 237 16 349 320 339 337 337 347 341 342 343 345 350 344 354 348 348 351 350 355 358
153 150 147 149 157 165 165 168 170 168 171 178 178 150 46 52 68 185 188 176 174 210 241 195 195 192 194 195 193 197 197 189 129 134 139 156 165 86 47 47 60 34 94 75 316 222 210 217 219 217 218 217 220 225 231 233 236 235 217 180 248 243 289 268 256 321 348 305 308 315 336 329 331 342 342 343 343 339 347 348 343 349 349 355 356
168 162 157 163 164 165 163 169 172 173 177 179 180 168 170 130 67 45 26 142 136 104 85 45 26 314 226 189 84 54 83 109 133 138 139 152 155 137 100 84 89 109 124 137 204 234 239 226 228 230 227 236 225 224 222 228 227 236 249 224 239 206 239 257 297 300 283 293 296 305 312 320 333 337 336 335 336 327 338 343 338 345 347 348 352
179 186 177 162 157 164 169 169 170 172 177 182 181 174 172 170 138 64 58 67 89 88 82 63 65 119 4 1 151 121 79 111 129 144 150 151 159 144 129 114 110 110 79 351 241 222 227 232 230 233 228 227 224 232 236 240 227 233 232 239 240 225 246 256 305 292 290 289 305 309 310 313 314 320 320 318 315 318 333 333 331 340 339 343 345
170 168 165 158 160 162 162 164 170 172 176 179 184 182 182 178 179 171 103 74 68 64 50 44 47 10 64 46 44 83 136 125 126 137 155 158 151 149 135 128 123 110 110 210 226 235 234 233 229 230 227 229 228 224 223 224 231 239 249 234 232 230 238 251 255 268 282 285 294 296 299 304 307 308 306 310 317 323 322 324 326 334 335 336 338
168 164 165 160 166 173 174 170 173 177 181 183 183 181 186 183 184 170 166 163 139 104 101 82 54 39 44 20 70 83 109 124 125 135 147 155 151 139 140 126 112 173 245 240 221 231 239 236 233 235 235 232 232 223 229 235 237 239 243 241 246 248 242 243 253 261 277 283 279 296 298 300 310 307 312 311 309 312 318 322 324 328 331 334 333
166 154 158 164 173 174 173 172 175 175 178 178 178 177 178 179 179 169 170 167 174 181 194 174 153 196 202 184 133 112 115 125 138 143 149 148 151 148 150 151 178 201 218 233 238 234 234 236 240 236 238 235 228 233 232 233 234 231 235 238 242 248 257 258 269 287 289 295 300 300 311 308 301 301 301 302 307 308 311 312 316 324 326 326 327
167 174 170 176 177 174 168 170 175 174 173 174 169 169 178 167 158 170 169 163 166 171 184 197 188 177 197 210 158 147 128 140 146 152 154 155 154 157 177 201 205 214 217 217 224 235 244 245 239 237 235 234 235 228 229 229 232 235 236 239 242 250 253 263 270 283 302 302 300 294 287 285 291 294 295 296 302 307 308 315 318 319 314 311 318
176 182 177 184 182 172 176 170 169 167 154 143 148 149 140 146 159 169 169 155 151 169 193 194 177 135 168 195 146 144 154 151 153 151 158 166 171 183 207 205 214 218 223 222 220 224 229 234 239 245 245 244 240 238 236 236 237 237 238 248 253 256 259 275 299 301 294 291 295 297 290 284 288 288 287 292 297 301 307 312 312 307 303 301 292
199 198 188 177 179 179 179 177 173 139 154 156 163 161 165 167 171 171 170 162 157 161 185 181 174 195 190 203 164 174 131 112 110 112 127 141 176 210 219 224 226 229 227 229 226 226 229 234 233 233 237 238 240 241 241 239 238 242 239 238 244 255 273 288 271 257 247 262 271 278 284 288 285 287 284 283 290 297 301 302 304 307 304 295 295
202 186 162 156 168 178 183 175 162 171 168 164 172 169 165 159 158 166 167 156 159 164 172 159 182 210 202 177 156 145 131 164 186 198 183 187 191 202 213 217 223 230 237 239 235 233 238 235 235 239 242 243 243 243 243 244 244 247 249 254 256 263 255 263 277 286 288 290 293 295 295 296 298 298 298 295 291 289 289 292 288 285 291 295 301
192 166 146 148 162 167 169 161 158 169 172 180 186 164 142 158 170 171 177 179 179 178 175 174 174 196 199 148 146 153 184 187 197 199 190 188 194 202 209 217 222 225 226 232 238 239 236 241 245 246 243 242 242 245 246 248 248 250 257 258 260 258 263 274 282 288 291 296 295 293 289 287 287 287 287 287 290 293 294 289 287 286 281 286 290
161 141 137 159 166 163 166 159 167 167 157 169 164 167 175 177 181 178 179 181 176 176 176 176 181 190 190 168 166 171 184 193 197 202 193 192 197 203 209 215 219 224 226 232 236 239 242 245 247 247 247 247 245 245 249 255 259 259 257 260 263 266 273 273 273 277 279 278 280 283 285 284 285 283 285 290 296 289 279 279 281 287 295 297 296
131 130 145 154 151 167 167 170 171 162 169 178 179 181 175 181 182 180 178 182 178 178 176 177 170 178 169 166 173 180 186 203 202 202 197 192 201 209 213 218 221 225 228 228 232 236 243 246 248 249 249 251 255 264 268 266 264 262 262 260 264 268 271 276 278 286 287 282 279 276 275 283 295 298 287 278 279 285 290 296 303 304 301 300 302
124 136 140 139 154 167 165 167 171 171 178 179 185 178 180 180 185 182 182 186 178 174 167 166 174 171 143 160 170 176 194 201 206 204 202 197 203 212 217 225 228 228 229 235 238 242 241 240 244 250 254 258 258 258 257 261 261 261 259 258 265 268 272 279 286 285 280 279 278 283 290 287 280 277 290 295 294 294 297 300 296 298 302 303 303
134 130 133 138 141 136 148 163 173 174 182 170 168 171 176 179 181 182 186 188 192 190 192 185 172 150 133 120 136 171 192 199 207 216 217 217 218 222 226 226 228 229 228 224 227 230 239 242 248 256 266 270 272 272 269 265 262 261 270 271 268 273 279 284 291 299 309 314 317 311 298 288 287 288 291 295 301 304 301 298 298 301 309 308 305
139 142 141 147 156 156 160 163 169 156 151 148 173 171 177 182 178 179 180 185 187 187 192 188 178 172 155 159 171 176 186 196 210 222 224 221 224 229 231 226 221 220 220 220 221 225 229 239 244 256 260 268 266 261 256 252 252 259 268 284 291 292 302 322 325 329 330 318 303 302 303 307 310 307 308 315 316 305 300 309 314 313 300 295 302
143 148 155 159 157 160 159 162 162 159 164 176 177 175 173 183 181 178 179 183 177 184 189 185 187 182 178 165 167 176 187 197 202 209 219 225 225 225 224 222 220 214 213 214 215 217 227 240 247 250 249 247 251 249 254 262 283 291 321 332 355 359 354 351 354 338 322 322 318 312 313 314 315 316 320 311 311 315 313 310 302 300 306 303 297
137 145 148 148 145 148 154 150 156 157 155 151 154 149 157 171 174 173 181 186 181 183 189 189 187 180 173 173 177 185 188 195 202 204 213 221 222 221 218 220 213 213 207 206 201 206 202 221 240 245 247 260 268 270 285 20 59 57 47 34 28 14 17 349 329 330 342 337 323 318 325 318 312 312 321 326 316 311 315 308 308 308 304 307 308
140 140 142 138 142 147 144 146 134 131 146 155 160 160 166 173 174 179 174 171 178 181 189 192 192 178 171 182 188 193 194 198 202 214 219 220 217 214 214 209 187 199 206 182 174 180 199 201 197 172 114 101 88 71 69 61 62 53 56 51 36 16 354 337 336 1 354 337 316 311 303 307 320 324 320 317 311 314 310 315 318 313 316 311 308
141 142 140 147 153 152 150 153 157 173 172 166 161 165 162 168 175 173 171 172 180 185 189 192 190 182 183 191 194 202 203 199 199 204 216 221 218 204 161 143 142 166 173 167 152 145 143 82 71 72 79 75 71 68 63 59 57 58 51 50 23 5 5 354 350 5 330 305 307 316 318 319 325 322 317 315 316 318 319 315 314 317 312 308 307
141 142 146 150 158 163 159 158 163 172 164 162 164 165 162 170 175 179 180 178 182 187 193 191 193 192 194 198 200 197 190 195 204 211 210 209 200 180 156 144 158 167 174 151 120 95 82 81 80 78 76 75 74 71 67 60 56 50 49 33 12 12 8 355 358 356 342 339 323 322 338 334 331 325 324 321 326 325 318 324 323 313 308 308 306
141 151 159 167 168 163 160 162 164 162 149 147 144 144 150 156 169 168 175 178 188 187 190 191 194 198 203 204 194 192 190 195 193 198 201 200 182 159 160 161 150 146 115 99 93 93 91 90 88 86 82 80 77 75 70 65 58 49 35 24 20 11 8 1 354 344 334 323 312 337 350 336 331 328 325 335 334 329 334 319 313 317 314 312 313